Regional Weather Roundup
Issued by NWS Goodland, KS

Home | Current Version | Previous Version | Text Only | Print | Product List | Glossary On
Versions: 1 2 3 4 5 6 7 8 9 10 11 12 13 14 15 16 17 18 19 20 21 22 23 24 25 26 27 28 29 30 31 32 33 34 35 36 37 38 39 40 41 42 43 44 45 46 47 48 49 50
000
ASUS43 KGLD 250608
RWRGLD

GOODLAND FORECAST AREA HOURLY WEATHER ROUNDUP
NATIONAL WEATHER SERVICE GOODLAND KS
1100 PM MST SAT FEB 24 2018

...OFFICIAL OBSERVATIONS...

CITY           SKY/WX    TMP DP  RH WIND       PRES   REMARKS
GOODLAND KS    MOCLDY    20  12  71 SW7       29.89R
HILL CITY KS   CLEAR     20  12  71 W6        29.94R
IMPERIAL NEB   PTCLDY    28  12  51 NW14      29.85R WCI  17
MCCOOK NEB     CLEAR     24  17  74 SW8       29.89R
AKRON CO       CLOUDY    23  10  57 W12       29.84R WCI  12
BURLINGTON CO  MOCLDY    15  10  80 W7        29.88R
LIMON CO       MOCLDY    13   8  81 CALM      29.85S
$$

...UNOFFICIAL OBSERVATIONS...

CITY           SKY/WX    TMP DP  RH WIND       PRES   REMARKS
COLBY KS       PTCLDY    18  14  86 W5        29.92R
NORTON KS      CLEAR     19  12  73 W8        29.91
SHARON SPRINGS   N/A     18   8  63 CALM        N/A
KIT CARSON CO    N/A     18  11  72 CALM        N/A
$$



USA.gov is the U.S. government's official web portal to all federal, state and local government web resources and services.